Change the Weather History Date:

Thursday, October 31, 2013

  Actual Average (KCSM) Record (KCSM)
Temperature  
Mean Temperature 57 °F -  
Max Temperature 68 °F 62 °F 81 °F (2008)
Min Temperature 46 °F 43 °F 34 °F (1996)
Degree Days  
Heating Degree Days 8    
Growing Degree Days 7 (Base 50)    
Moisture  
Dew Point 40 °F    
Average Humidity 53    
Maximum Humidity 88    
Minimum Humidity 21    
Precipitation  
Precipitation 0.05 in - - ()
Sea Level Pressure  
Sea Level Pressure 29.75 in    
Wind  
Wind Speed 13 mph (West)    
Max Wind Speed 26 mph    
Max Gust Speed 39 mph    
Visibility 10 miles    
Events Rain , Thunderstorm    
Averages and records for this station are not official NWS values.
T = Trace of Precipitation, MM = Missing Value Source: NWS Daily Summary

Daily Weather History Graph

Daily Weather History Graph

Search for Another Location

Airport or City:

Trip Planner

Search our weather history database for the weather conditions in past years. The results will help you decide how hot, cold, wet, or windy it might be!

Date:

Astronomy

Oct. 31, 2013 Rise Set
Actual Time 7:56 AM CDT 6:41 PM CDT
Civil Twilight 7:30 AM CDT 7:07 PM CDT
Nautical Twilight 7:00 AM CDT 7:37 PM CDT
Astronomical Twilight 6:30 AM CDT 8:07 PM CDT
Moon 4:53 AM CDT (10/31) 4:55 PM CDT (10/31)
Length of Visible Light 11h 37m
Length of Day
10h 44m
Waning Crescent, 10% of the Moon is Illuminated
Oct 31
Waning Crescent
Nov 3
New
Nov 9
First Quarter
Nov 17
Full
Nov 25
Last Quarter

Hourly Weather History & Observations

Time (CDT) Temp. Dew Point Humidity Pressure Visibility Wind Dir Wind Speed Gust Speed Precip Events Conditions
12:15 AM 68.0 °F 64.4 °F 88% 29.71 in 7.0 mi SSW 17.3 mph 24.2 mph N/A Rain , Thunderstorm Light Thunderstorms and Rain
12:35 AM 62.6 °F 53.6 °F 72% 29.71 in 10.0 mi South 19.6 mph 35.7 mph 0.05 in Thunderstorm Mostly Cloudy
12:55 AM 64.4 °F 55.4 °F 73% 29.69 in 10.0 mi South 12.7 mph - 0.05 in Thunderstorm Mostly Cloudy
1:15 AM 64.4 °F 55.4 °F 73% 29.68 in 10.0 mi South 17.3 mph 20.7 mph N/A Rain Light Rain
1:35 AM 62.6 °F 53.6 °F 72% 29.67 in 10.0 mi South 17.3 mph - N/A   Overcast
1:55 AM 62.6 °F 53.6 °F 72% 29.66 in 10.0 mi SSW 18.4 mph 23.0 mph N/A   Overcast
2:15 AM 62.6 °F 53.6 °F 72% 29.65 in 10.0 mi South 18.4 mph 23.0 mph N/A   Overcast
2:35 AM 60.8 °F 53.6 °F 77% 29.64 in 10.0 mi South 13.8 mph 21.9 mph N/A   Scattered Clouds
2:55 AM 60.8 °F 53.6 °F 77% 29.65 in 10.0 mi SSW 6.9 mph 10.4 mph N/A   Mostly Cloudy
3:15 AM 60.8 °F 53.6 °F 77% 29.66 in 10.0 mi NW 5.8 mph - N/A   Overcast
3:35 AM 62.6 °F 53.6 °F 72% 29.65 in 10.0 mi SW 8.1 mph 17.3 mph N/A   Mostly Cloudy
3:55 AM 62.6 °F 53.6 °F 72% 29.66 in 10.0 mi West 4.6 mph - N/A Rain Light Rain
4:15 AM 62.6 °F 53.6 °F 72% 29.65 in 10.0 mi WSW 3.5 mph - N/A   Overcast
4:35 AM 62.6 °F 53.6 °F 72% 29.65 in 10.0 mi SW 6.9 mph - N/A Rain Light Rain
4:55 AM 62.6 °F 53.6 °F 72% 29.63 in 10.0 mi SSW 6.9 mph - N/A   Mostly Cloudy
5:15 AM 60.8 °F 53.6 °F 77% 29.62 in 10.0 mi South 6.9 mph - N/A   Scattered Clouds
5:35 AM 60.8 °F 53.6 °F 77% 29.62 in 10.0 mi South 6.9 mph - N/A   Clear
5:55 AM 59.0 °F 53.6 °F 82% 29.62 in 10.0 mi South 9.2 mph - N/A   Clear
6:15 AM 59.0 °F 51.8 °F 77% 29.63 in 10.0 mi SW 10.4 mph - N/A   Scattered Clouds
6:35 AM 60.8 °F 46.4 °F 59% 29.63 in 10.0 mi WSW 12.7 mph 17.3 mph N/A   Clear
6:55 AM 59.0 °F 35.6 °F 42% 29.64 in 10.0 mi West 24.2 mph 34.5 mph N/A   Scattered Clouds
7:15 AM 55.4 °F 33.8 °F 44% 29.64 in 10.0 mi West 18.4 mph 27.6 mph N/A   Scattered Clouds
7:35 AM 53.6 °F 33.8 °F 47% 29.66 in 10.0 mi West 13.8 mph - N/A   Clear
7:55 AM 53.6 °F 33.8 °F 47% 29.66 in 10.0 mi West 10.4 mph - N/A   Scattered Clouds
8:15 AM 51.8 °F 35.6 °F 54% 29.66 in 10.0 mi West 6.9 mph - N/A   Scattered Clouds
8:35 AM 50.0 °F 35.6 °F 58% 29.67 in 10.0 mi West 9.2 mph - N/A   Clear
8:55 AM 50.0 °F 41.0 °F 71% 29.69 in 10.0 mi West 8.1 mph - N/A   Scattered Clouds
9:15 AM 51.8 °F 46.4 °F 82% 29.70 in 10.0 mi West 11.5 mph - N/A   Mostly Cloudy
9:35 AM 51.8 °F 46.4 °F 82% 29.72 in 10.0 mi NW 15.0 mph - N/A   Overcast
9:55 AM 51.8 °F 44.6 °F 76% 29.74 in 10.0 mi NW 24.2 mph 33.4 mph N/A   Overcast
10:15 AM 51.8 °F 44.6 °F 76% 29.75 in 10.0 mi NW 26.5 mph 31.1 mph N/A   Overcast
10:35 AM 51.8 °F 42.8 °F 71% 29.76 in 10.0 mi NNW 20.7 mph 31.1 mph N/A   Scattered Clouds
10:55 AM 53.6 °F 41.0 °F 62% 29.77 in 10.0 mi NNW 23.0 mph 35.7 mph N/A   Clear
11:15 AM 53.6 °F 41.0 °F 62% 29.78 in 10.0 mi NNW 25.3 mph 39.1 mph N/A   Clear
11:35 AM 55.4 °F 41.0 °F 58% 29.79 in 10.0 mi NNW 24.2 mph 32.2 mph N/A   Clear
11:55 AM 55.4 °F 41.0 °F 58% 29.81 in 10.0 mi NNW 19.6 mph 34.5 mph N/A   Clear
12:15 PM 59.0 °F 39.2 °F 48% 29.82 in 10.0 mi NW 19.6 mph 25.3 mph N/A   Clear
12:35 PM 60.8 °F 39.2 °F 45% 29.82 in 10.0 mi NW 18.4 mph 26.5 mph N/A   Clear
12:55 PM 60.8 °F 39.2 °F 45% 29.82 in 10.0 mi NW 16.1 mph - N/A   Clear
1:15 PM 62.6 °F 37.4 °F 39% 29.82 in 10.0 mi NNW 16.1 mph 24.2 mph N/A   Clear
1:35 PM 62.6 °F 35.6 °F 37% 29.82 in 10.0 mi NW 19.6 mph 26.5 mph N/A   Clear
1:55 PM 62.6 °F 35.6 °F 37% 29.82 in 10.0 mi NW 17.3 mph 26.5 mph N/A   Clear
2:15 PM 64.4 °F 33.8 °F 32% 29.81 in 10.0 mi NW 17.3 mph 26.5 mph N/A   Clear
2:35 PM 64.4 °F 33.8 °F 32% 29.79 in 10.0 mi WNW 24.2 mph 31.1 mph N/A   Clear
2:55 PM 64.4 °F 32.0 °F 30% 29.79 in 10.0 mi NW 18.4 mph 28.8 mph N/A   Clear
3:15 PM 66.2 °F 32.0 °F 28% 29.78 in 10.0 mi NW 17.3 mph 29.9 mph N/A   Clear
3:35 PM 66.2 °F 32.0 °F 28% 29.78 in 10.0 mi NW 18.4 mph 29.9 mph N/A   Clear
3:55 PM 68.0 °F 30.2 °F 24% 29.78 in 10.0 mi NW 18.4 mph 31.1 mph N/A   Clear
4:15 PM 68.0 °F 30.2 °F 24% 29.78 in 10.0 mi NW 21.9 mph 31.1 mph N/A   Clear
4:35 PM 68.0 °F 28.4 °F 23% 29.79 in 10.0 mi WNW 20.7 mph 27.6 mph N/A   Clear
4:55 PM 68.0 °F 30.2 °F 24% 29.78 in 10.0 mi NW 15.0 mph 26.5 mph N/A   Clear
5:15 PM 68.0 °F 26.6 °F 21% 29.78 in 10.0 mi NW 16.1 mph 24.2 mph N/A   Clear
5:35 PM 66.2 °F 28.4 °F 24% 29.78 in 10.0 mi WNW 13.8 mph 19.6 mph N/A   Clear
5:55 PM 66.2 °F 28.4 °F 24% 29.79 in 10.0 mi NW 16.1 mph - N/A   Clear
6:15 PM 64.4 °F 28.4 °F 26% 29.79 in 10.0 mi NW 12.7 mph 18.4 mph N/A   Clear
6:35 PM 62.6 °F 30.2 °F 30% 29.79 in 10.0 mi NW 8.1 mph - N/A   Clear
6:55 PM 62.6 °F 30.2 °F 30% 29.80 in 10.0 mi WNW 6.9 mph - N/A   Clear
7:35 PM 59.0 °F 32.0 °F 36% 29.81 in 10.0 mi Calm Calm - N/A   Clear
7:55 PM 59.0 °F 32.0 °F 36% 29.81 in 10.0 mi Calm Calm - N/A   Clear
8:15 PM 59.0 °F 32.0 °F 36% 29.82 in 10.0 mi Calm Calm - N/A   Scattered Clouds
8:35 PM 55.4 °F 32.0 °F 41% 29.82 in 10.0 mi Calm Calm - N/A   Clear
8:55 PM 53.6 °F 32.0 °F 44% 29.82 in 10.0 mi Calm Calm - N/A   Scattered Clouds
9:15 PM 53.6 °F 32.0 °F 44% 29.83 in 10.0 mi Calm Calm - N/A   Clear
9:35 PM 55.4 °F 32.0 °F 41% 29.84 in 10.0 mi Calm Calm - N/A   Clear
9:55 PM 53.6 °F 32.0 °F 44% 29.84 in 10.0 mi Calm Calm - N/A   Scattered Clouds
10:15 PM 51.8 °F 33.8 °F 50% 29.84 in 10.0 mi Calm Calm - N/A   Clear
10:35 PM 51.8 °F 33.8 °F 50% 29.84 in 10.0 mi Calm Calm - N/A   Clear
10:55 PM 46.4 °F 35.6 °F 66% 29.85 in 10.0 mi Calm Calm - N/A   Scattered Clouds
11:15 PM 50.0 °F 33.8 °F 54% 29.85 in 10.0 mi SSE 4.6 mph - N/A   Clear
11:35 PM 50.0 °F 35.6 °F 58% 29.85 in 10.0 mi SSE 4.6 mph - N/A   Clear
11:55 PM 48.2 °F 35.6 °F 62% 29.85 in 10.0 mi SE 4.6 mph - N/A   Clear